Retour au catalogue

TITAN 3C TRANSTAGE DEB

ActifHEO
NORAD 26050·DEBRIS·🇺🇸 United States

Lancé Dec 21, 1965 depuis Cape Canaveral Space Force Station

Loading…

Prochains Passages (prochaines 24 heures)

TLE

FraisSource: Space-Track

Époque: Sep 14, 2026, 03:29 UTC

1 26050U 65108AJ  26257.14521422 -.00000049  00000-0  42024-2 0  9994
2 26050  26.2602 194.6341 6607126 326.1019   5.4417  2.69859082268625

Suivez TITAN 3C TRANSTAGE DEB en temps réel avec AllMySat

Download on the App Store